UAL1856 KLAX-KEWR

Flight info

Callsign UAL1856
Flight time N/A
Altitude 39000
Route ORCKA5 LAS J146 DVC HBU MCK OVR DSM EVOTE NELLS KEEHO J584 SLT FQM3
Aircraft B789/H-SDE1E2E3FGHIJ2J3J4J5M1RWXY/LB1D1

Departure

Time 2026-05-05 01:45
Airport Los Angeles International Airport (KLAX)

Arrival

Time N/A
Airport Newark Liberty International Airport (KEWR)
Time Latitude Longitude Altitude Speed Heading
2026-05-05 01:10 33.94102 -118.39887 98 ft 0 kts 307°
2026-05-05 01:32 33.94100 -118.39884 100 ft 3 kts 307°
2026-05-05 01:33 33.94085 -118.39859 98 ft 4 kts 300°
2026-05-05 01:33 33.94076 -118.39832 98 ft 4 kts 251°
2026-05-05 01:33 33.94079 -118.39824 97 ft 3 kts 186°
2026-05-05 01:33 33.94077 -118.39829 98 ft 4 kts 229°
2026-05-05 01:34 33.94066 -118.39828 97 ft 0 kts 178°
2026-05-05 01:36 33.94065 -118.39828 97 ft 0 kts 178°
2026-05-05 01:37 33.94062 -118.39828 98 ft 1 kts 178°
2026-05-05 01:37 33.94052 -118.39828 99 ft 2 kts 177°
2026-05-05 01:38 33.94022 -118.39825 99 ft 7 kts 176°
2026-05-05 01:38 33.93975 -118.39813 99 ft 7 kts 167°
2026-05-05 01:38 33.93930 -118.39798 101 ft 6 kts 153°
2026-05-05 01:38 33.93909 -118.39768 102 ft 4 kts 114°
2026-05-05 01:39 33.93907 -118.39716 101 ft 10 kts 86°
2026-05-05 01:39 33.93919 -118.39597 100 ft 17 kts 83°
2026-05-05 01:39 33.93934 -118.39452 101 ft 18 kts 82°
2026-05-05 01:39 33.93950 -118.39296 99 ft 19 kts 83°
2026-05-05 01:40 33.93967 -118.39133 102 ft 20 kts 83°
2026-05-05 01:40 33.93984 -118.38969 101 ft 20 kts 82°
2026-05-05 01:40 33.94001 -118.38799 100 ft 21 kts 83°
2026-05-05 01:40 33.94019 -118.38628 101 ft 21 kts 83°
2026-05-05 01:41 33.94036 -118.38457 103 ft 21 kts 83°
2026-05-05 01:41 33.94055 -118.38278 104 ft 22 kts 83°
2026-05-05 01:41 33.94070 -118.38131 99 ft 14 kts 83°
2026-05-05 01:41 33.94078 -118.38053 98 ft 8 kts 84°
2026-05-05 01:42 33.94079 -118.38036 98 ft 0 kts 90°
2026-05-05 01:43 33.94079 -118.38035 98 ft 0 kts 92°
2026-05-05 01:43 33.94077 -118.38032 98 ft 1 kts 111°
2026-05-05 01:43 33.94058 -118.38010 101 ft 6 kts 146°
2026-05-05 01:43 33.94023 -118.37998 99 ft 5 kts 184°
2026-05-05 01:44 33.93993 -118.38024 99 ft 8 kts 235°
2026-05-05 01:44 33.93973 -118.38125 99 ft 21 kts 264°
2026-05-05 01:44 33.93936 -118.38496 107 ft 71 kts 263°
2026-05-05 01:44 33.93855 -118.39289 101 ft 121 kts 263°
2026-05-05 01:45 33.93735 -118.40466 182 ft 156 kts 266°
2026-05-05 01:45 33.93589 -118.41742 712 ft 155 kts 259°
2026-05-05 01:45 33.93425 -118.43052 1179 ft 163 kts 262°
2026-05-05 01:45 33.93320 -118.44416 1641 ft 168 kts 263°
2026-05-05 01:46 33.93164 -118.45875 2012 ft 182 kts 259°
2026-05-05 01:46 33.92669 -118.47370 2320 ft 200 kts 245°
2026-05-05 01:46 33.92095 -118.48956 2741 ft 214 kts 247°
2026-05-05 01:46 33.91522 -118.50616 3139 ft 226 kts 247°
2026-05-05 01:47 33.90903 -118.52437 3641 ft 239 kts 248°
2026-05-05 01:47 33.90253 -118.54327 4240 ft 248 kts 248°
2026-05-05 01:47 33.89588 -118.56250 4684 ft 256 kts 248°
2026-05-05 01:47 33.88895 -118.58263 4937 ft 260 kts 248°
2026-05-05 01:48 33.88194 -118.60291 4988 ft 261 kts 248°
2026-05-05 01:48 33.87482 -118.62331 5189 ft 269 kts 248°
2026-05-05 01:48 33.86667 -118.64324 6220 ft 261 kts 240°
2026-05-05 01:48 33.85655 -118.66094 7034 ft 260 kts 237°
2026-05-05 01:49 33.84801 -118.68056 7697 ft 262 kts 244°
2026-05-05 01:49 33.83924 -118.69986 8446 ft 263 kts 238°
2026-05-05 01:49 33.83026 -118.71915 9104 ft 267 kts 244°
2026-05-05 01:49 33.82288 -118.73899 9865 ft 265 kts 244°
2026-05-05 01:50 33.81535 -118.76007 10340 ft 276 kts 246°
2026-05-05 01:50 33.80746 -118.78187 10640 ft 291 kts 243°
2026-05-05 01:50 33.79878 -118.80460 10925 ft 307 kts 245°
2026-05-05 01:50 33.78903 -118.82762 11287 ft 319 kts 238°
2026-05-05 01:51 33.77513 -118.84845 11839 ft 324 kts 224°
2026-05-05 01:51 33.75575 -118.86265 12435 ft 332 kts 201°
2026-05-05 01:51 33.73269 -118.86678 13126 ft 337 kts 187°
2026-05-05 01:51 33.70903 -118.86727 13727 ft 344 kts 180°
2026-05-05 01:52 33.68580 -118.85956 14130 ft 361 kts 154°
2026-05-05 01:52 33.66723 -118.83845 14719 ft 375 kts 126°
2026-05-05 01:52 33.65875 -118.80861 15279 ft 387 kts 97°
2026-05-05 01:52 33.66290 -118.77657 15772 ft 397 kts 68°
2026-05-05 01:53 33.67842 -118.74936 16358 ft 397 kts 49°
2026-05-05 01:53 33.69670 -118.72433 16914 ft 400 kts 50°
2026-05-05 01:53 33.71324 -118.69788 17420 ft 403 kts 54°
2026-05-05 01:53 33.73004 -118.67064 17931 ft 407 kts 52°
2026-05-05 01:54 33.74895 -118.64513 18372 ft 413 kts 44°
2026-05-05 01:54 33.77037 -118.62157 18799 ft 417 kts 40°
2026-05-05 01:54 33.79243 -118.59886 19178 ft 422 kts 41°
2026-05-05 01:54 33.81422 -118.57465 19635 ft 425 kts 41°
2026-05-05 01:55 33.83721 -118.55212 20019 ft 429 kts 33°